| time (UTC) | temp F | wind direction | speed MPH | gust MPH | rain 1hr in | rain 24hr in | rain mn in | humidity % | barometer mb |
| 20260906205425 | 86 | 42 | 3.0 | 7.0 | 0.00 | 0.00 | 0.00 | 54 | 1009.0 |
| 20260906204504 | 86 | 22 | 2.0 | 8.0 | 0.00 | 0.00 | 0.00 | 56 | 1009.1 |
| 20260906203604 | 86 | 341 | 1.0 | 4.0 | 0.00 | 0.00 | 0.00 | 59 | 1009.3 |
| 20260906202703 | 85 | 285 | 0.0 | 2.0 | 0.00 | 0.00 | 0.00 | 61 | 1009.3 |
| 20260906201825 | 85 | 285 | 1.0 | 3.0 | 0.00 | 0.00 | 0.00 | 61 | 1009.4 |
| 20260906200904 | 84 | 265 | 1.0 | 4.0 | 0.00 | 0.00 | 0.00 | 61 | 1009.5 |
| 20260906200004 | 83 | 266 | 0.0 | 2.0 | 0.00 | 0.00 | 0.00 | 62 | 1009.6 |
| 20260906195425 | 83 | 269 | 1.0 | 3.0 | 0.00 | 0.00 | 0.00 | 62 | 1009.7 |
| 20260906194504 | 82 | 267 | 0.0 | 4.0 | 0.00 | 0.00 | 0.00 | 62 | 1009.9 |
| 20260906193604 | 82 | 255 | 0.0 | 3.0 | 0.00 | 0.00 | 0.00 | 64 | 1009.9 |
| 20260906192703 | 81 | 247 | 1.0 | 6.0 | 0.00 | 0.00 | 0.00 | 67 | 1010.1 |
| 20260906191804 | 81 | 221 | 0.0 | 1.0 | 0.00 | 0.00 | 0.00 | 69 | 1010.1 |
| 20260906190903 | 80 | 260 | 1.0 | 3.0 | 0.00 | 0.00 | 0.00 | 71 | 1010.1 |
| 20260906190004 | 80 | 275 | 0.0 | 2.0 | 0.00 | 0.00 | 0.00 | 72 | 1010.2 |
| 20260906185404 | 80 | 273 | 0.0 | 2.0 | 0.00 | 0.00 | 0.00 | 73 | 1010.3 |
| 20260906184504 | 79 | 321 | 0.0 | 2.0 | 0.00 | 0.00 | 0.00 | 73 | 1010.4 |
| 20260906183603 | 79 | 251 | 0.0 | 1.0 | 0.00 | 0.00 | 0.00 | 73 | 1010.4 |
| 20260906182703 | 80 | 0 | 0.0 | 0.0 | 0.00 | 0.00 | 0.00 | 73 | 1010.5 |
| 20260906181825 | 80 | 251 | 0.0 | 1.0 | 0.00 | 0.00 | 0.00 | 72 | 1010.5 |
| 20260906180903 | 80 | 0 | 0.0 | 0.0 | 0.00 | 0.00 | 0.00 | 71 | 1010.5 |
| 20260906180004 | 80 | 255 | 0.0 | 2.0 | 0.00 | 0.00 | 0.00 | 73 | 1010.4 |
| 20260906175425 | 80 | 272 | 0.0 | 1.0 | 0.00 | 0.00 | 0.00 | 74 | 1010.4 |
| 20260906174504 | 80 | 287 | 0.0 | 1.0 | 0.00 | 0.00 | 0.00 | 74 | 1010.3 |
| 20260906173603 | 80 | 289 | 0.0 | 1.0 | 0.00 | 0.00 | 0.00 | 73 | 1010.2 |
| 20260906172704 | 79 | 272 | 0.0 | 1.0 | 0.00 | 0.00 | 0.00 | 73 | 1010.1 |
| 20260906171804 | 79 | 335 | 0.0 | 1.0 | 0.00 | 0.00 | 0.00 | 72 | 1010.1 |
| 20260906170903 | 79 | 336 | 0.0 | 1.0 | 0.00 | 0.00 | 0.00 | 74 | 1010.0 |
| 20260906170025 | 78 | 0 | 0.0 | 0.0 | 0.00 | 0.00 | 0.00 | 75 | 1009.9 |
| 20260906165404 | 78 | 0 | 0.0 | 0.0 | 0.00 | 0.00 | 0.00 | 76 | 1009.9 |
| 20260906164525 | 77 | 0 | 0.0 | 0.0 | 0.00 | 0.00 | 0.00 | 77 | 1009.9 |
| 20260906163604 | 77 | 0 | 0.0 | 0.0 | 0.00 | 0.00 | 0.00 | 78 | 1009.8 |
| 20260906162704 | 77 | 0 | 0.0 | 0.0 | 0.00 | 0.00 | 0.00 | 79 | 1009.8 |
| 20260906161803 | 76 | 0 | 0.0 | 0.0 | 0.00 | 0.00 | 0.00 | 81 | 1009.8 |
| 20260906160903 | 76 | 0 | 0.0 | 0.0 | 0.00 | 0.00 | 0.00 | 83 | 1009.8 |
| 20260906160004 | 75 | 0 | 0.0 | 0.0 | 0.00 | 0.00 | 0.00 | 85 | 1009.9 |
| 20260906155403 | 74 | 0 | 0.0 | 0.0 | 0.00 | 0.00 | 0.00 | 85 | 1009.9 |
| 20260906154504 | 74 | 0 | 0.0 | 0.0 | 0.00 | 0.00 | 0.00 | 86 | 1010.0 |
| 20260906153625 | 74 | 0 | 0.0 | 0.0 | 0.00 | 0.00 | 0.00 | 87 | 1010.0 |
| 20260906152704 | 73 | 0 | 0.0 | 0.0 | 0.00 | 0.00 | 0.00 | 87 | 1010.0 |
| 20260906151825 | 73 | 0 | 0.0 | 0.0 | 0.00 | 0.00 | 0.00 | 88 | 1010.0 |
| 20260906150903 | 72 | 0 | 0.0 | 0.0 | 0.00 | 0.00 | 0.00 | 87 | 1010.0 |
| 20260906150004 | 72 | 0 | 0.0 | 0.0 | 0.00 | 0.00 | 0.00 | 88 | 1010.1 |
| 20260906145403 | 72 | 0 | 0.0 | 0.0 | 0.00 | 0.00 | 0.00 | 88 | 1010.0 |
| 20260906144503 | 71 | 0 | 0.0 | 0.0 | 0.00 | 0.00 | 0.00 | 64 | 1009.9 |
| 20260906143603 | 70 | 0 | 0.0 | 0.0 | 0.00 | 0.00 | 0.00 | 64 | 1009.8 |
| 20260906142704 | 70 | 0 | 0.0 | 0.0 | 0.00 | 0.00 | 0.00 | 64 | 1009.8 |
| 20260906141803 | 70 | 0 | 0.0 | 0.0 | 0.00 | 0.00 | 0.00 | 64 | 1009.7 |
| 20260906140904 | 70 | 0 | 0.0 | 0.0 | 0.00 | 0.00 | 0.00 | 64 | 1009.6 |
| 20260906140004 | 70 | 0 | 0.0 | 0.0 | 0.00 | 0.00 | 0.00 | 64 | 1009.4 |
| 20260906135403 | 70 | 0 | 0.0 | 0.0 | 0.00 | 0.00 | 0.00 | 64 | 1009.2 |
| 20260906134504 | 70 | 0 | 0.0 | 0.0 | 0.00 | 0.00 | 0.00 | 64 | 1009.1 |
| 20260906133603 | 70 | 0 | 0.0 | 0.0 | 0.00 | 0.00 | 0.00 | 64 | 1009.2 |
| 20260906132703 | 70 | 0 | 0.0 | 0.0 | 0.00 | 0.00 | 0.00 | 64 | 1009.0 |
| 20260906131803 | 70 | 0 | 0.0 | 0.0 | 0.00 | 0.00 | 0.00 | 64 | 1009.0 |
| 20260906130904 | 70 | 0 | 0.0 | 0.0 | 0.00 | 0.00 | 0.00 | 64 | 1008.9 |
| 20260906130004 | 70 | 0 | 0.0 | 0.0 | 0.00 | 0.00 | 0.00 | 64 | 1008.9 |
| 20260906125403 | 70 | 0 | 0.0 | 0.0 | 0.00 | 0.00 | 0.00 | 64 | 1008.9 |
| 20260906124503 | 70 | 0 | 0.0 | 0.0 | 0.00 | 0.00 | 0.00 | 64 | 1009.0 |
| 20260906123603 | 70 | 0 | 0.0 | 0.0 | 0.00 | 0.00 | 0.00 | 64 | 1008.9 |
| 20260906122704 | 70 | 0 | 0.0 | 0.0 | 0.00 | 0.00 | 0.00 | 64 | 1008.8 |
| 20260906121804 | 70 | 0 | 0.0 | 0.0 | 0.00 | 0.00 | 0.00 | 64 | 1008.9 |
| 20260906120903 | 70 | 0 | 0.0 | 0.0 | 0.00 | 0.00 | 0.00 | 64 | 1009.0 |
| 20260906120004 | 70 | 0 | 0.0 | 0.0 | 0.00 | 0.00 | 0.00 | 64 | 1009.0 |
| 20260906115403 | 70 | 0 | 0.0 | 0.0 | 0.00 | 0.00 | 0.00 | 64 | 1009.0 |
| 20260906114525 | 70 | 0 | 0.0 | 0.0 | 0.00 | 0.00 | 0.00 | 64 | 1009.2 |
| 20260906113604 | 70 | 0 | 0.0 | 0.0 | 0.00 | 0.00 | 0.00 | 64 | 1009.2 |
| 20260906112703 | 70 | 0 | 0.0 | 0.0 | 0.00 | 0.00 | 0.00 | 64 | 1009.2 |
| 20260906111803 | 70 | 0 | 0.0 | 0.0 | 0.00 | 0.00 | 0.00 | 64 | 1009.2 |
| 20260906110904 | 70 | 0 | 0.0 | 0.0 | 0.00 | 0.00 | 0.00 | 64 | 1009.3 |
| 20260906110004 | 70 | 0 | 0.0 | 0.0 | 0.00 | 0.00 | 0.00 | 64 | 1009.3 |
| 20260906105403 | 70 | 0 | 0.0 | 0.0 | 0.00 | 0.00 | 0.00 | 64 | 1009.4 |
| 20260906104504 | 70 | 0 | 0.0 | 0.0 | 0.00 | 0.00 | 0.00 | 64 | 1009.4 |
| 20260906103604 | 70 | 0 | 0.0 | 0.0 | 0.00 | 0.00 | 0.00 | 64 | 1009.3 |
| 20260906102704 | 70 | 0 | 0.0 | 0.0 | 0.00 | 0.00 | 0.00 | 64 | 1009.3 |
| 20260906101803 | 70 | 0 | 0.0 | 0.0 | 0.00 | 0.00 | 0.00 | 64 | 1009.2 |
| 20260906100904 | 70 | 0 | 0.0 | 0.0 | 0.00 | 0.00 | 0.00 | 64 | 1009.3 |
| 20260906100004 | 72 | 0 | 0.0 | 0.0 | 0.00 | 0.00 | 0.00 | 64 | 1009.4 |
| 20260906095404 | 73 | 0 | 0.0 | 0.0 | 0.00 | 0.00 | 0.00 | 64 | 1009.4 |
| 20260906094504 | 74 | 0 | 0.0 | 0.0 | 0.00 | 0.00 | 0.00 | 62 | 1009.3 |
| 20260906093604 | 74 | 0 | 0.0 | 0.0 | 0.00 | 0.00 | 0.00 | 60 | 1009.3 |
| 20260906092703 | 74 | 0 | 0.0 | 0.0 | 0.00 | 0.00 | 0.00 | 60 | 1009.4 |
| 20260906091804 | 73 | 0 | 0.0 | 0.0 | 0.00 | 0.00 | 0.00 | 58 | 1009.4 |
| 20260906090903 | 73 | 0 | 0.0 | 0.0 | 0.00 | 0.00 | 0.00 | 58 | 1009.5 |
| 20260906090004 | 73 | 0 | 0.0 | 0.0 | 0.00 | 0.00 | 0.00 | 58 | 1009.6 |
| 20260906085403 | 73 | 0 | 0.0 | 0.0 | 0.00 | 0.00 | 0.00 | 59 | 1009.6 |
| 20260906084503 | 73 | 0 | 0.0 | 0.0 | 0.00 | 0.00 | 0.00 | 58 | 1009.6 |
| 20260906083603 | 73 | 0 | 0.0 | 0.0 | 0.00 | 0.00 | 0.00 | 59 | 1009.7 |
| 20260906082704 | 73 | 0 | 0.0 | 0.0 | 0.00 | 0.00 | 0.00 | 58 | 1009.8 |
| 20260906081803 | 73 | 0 | 0.0 | 0.0 | 0.00 | 0.00 | 0.00 | 59 | 1009.8 |
| 20260906080925 | 73 | 0 | 0.0 | 0.0 | 0.00 | 0.00 | 0.00 | 58 | 1009.9 |
| 20260906080004 | 73 | 0 | 0.0 | 0.0 | 0.00 | 0.00 | 0.00 | 56 | 1009.9 |
| 20260906075403 | 74 | 0 | 0.0 | 0.0 | 0.00 | 0.00 | 0.00 | 55 | 1010.0 |
| 20260906074504 | 74 | 0 | 0.0 | 0.0 | 0.00 | 0.00 | 0.00 | 54 | 1010.0 |
| 20260906073604 | 75 | 0 | 0.0 | 0.0 | 0.00 | 0.00 | 0.00 | 49 | 1010.1 |
| 20260906072704 | 75 | 0 | 0.0 | 0.0 | 0.00 | 0.00 | 0.00 | 43 | 1010.1 |
| 20260906071803 | 75 | 0 | 0.0 | 0.0 | 0.00 | 0.00 | 0.00 | 40 | 1010.2 |
| 20260906070903 | 75 | 0 | 0.0 | 0.0 | 0.00 | 0.00 | 0.00 | 40 | 1010.2 |
| 20260906070004 | 75 | 0 | 0.0 | 0.0 | 0.00 | 0.00 | 0.00 | 40 | 1010.1 |
| 20260906065404 | 75 | 0 | 0.0 | 0.0 | 0.00 | 0.00 | 0.00 | 40 | 1010.0 |
| 20260906064504 | 75 | 0 | 0.0 | 0.0 | 0.00 | 0.00 | 0.00 | 41 | 1010.1 |
| 20260906063604 | 75 | 0 | 0.0 | 0.0 | 0.00 | 0.00 | 0.00 | 41 | 1010.0 |
| 20260906062703 | 75 | 0 | 0.0 | 0.0 | 0.00 | 0.00 | 0.00 | 41 | 1009.9 |
| 20260906061804 | 75 | 0 | 0.0 | 0.0 | 0.00 | 0.00 | 0.00 | 41 | 1010.0 |
| 20260906060904 | 75 | 0 | 0.0 | 0.0 | 0.00 | 0.00 | 0.00 | 41 | 1010.0 |
| 20260906060004 | 76 | 0 | 0.0 | 0.0 | 0.00 | 0.00 | 0.00 | 41 | 1010.0 |
| 20260906055404 | 76 | 0 | 0.0 | 0.0 | 0.00 | 0.00 | 0.00 | 41 | 1010.0 |
| 20260906054504 | 76 | 0 | 0.0 | 0.0 | 0.00 | 0.00 | 0.00 | 41 | 1010.1 |
| 20260906053603 | 76 | 0 | 0.0 | 0.0 | 0.00 | 0.00 | 0.00 | 41 | 1010.2 |
| 20260906052724 | 76 | 0 | 0.0 | 0.0 | 0.00 | 0.00 | 0.00 | 40 | 1010.3 |
| 20260906051804 | 76 | 0 | 0.0 | 0.0 | 0.00 | 0.00 | 0.00 | 40 | 1010.3 |
| 20260906050903 | 76 | 0 | 0.0 | 0.0 | 0.00 | 0.00 | 0.00 | 40 | 1010.2 |
| 20260906050004 | 76 | 0 | 0.0 | 0.0 | 0.00 | 0.00 | 0.00 | 39 | 1010.1 |
| 20260906045404 | 76 | 0 | 0.0 | 0.0 | 0.00 | 0.00 | 0.00 | 39 | 1010.3 |
| 20260906044504 | 76 | 0 | 0.0 | 0.0 | 0.00 | 0.00 | 0.00 | 39 | 1010.2 |
| 20260906043603 | 76 | 0 | 0.0 | 0.0 | 0.00 | 0.00 | 0.00 | 38 | 1010.4 |
| 20260906042703 | 76 | 0 | 0.0 | 0.0 | 0.00 | 0.00 | 0.00 | 37 | 1010.4 |
| 20260906041803 | 77 | 0 | 0.0 | 0.0 | 0.00 | 0.00 | 0.00 | 35 | 1010.2 |
| 20260906040925 | 77 | 0 | 0.0 | 0.0 | 0.00 | 0.00 | 0.00 | 34 | 1010.2 |
| 20260906040004 | 78 | 0 | 0.0 | 0.0 | 0.00 | 0.00 | 0.00 | 34 | 1010.1 |
| 20260906035403 | 78 | 0 | 0.0 | 0.0 | 0.00 | 0.00 | 0.00 | 33 | 1010.0 |
| 20260906034503 | 78 | 0 | 0.0 | 0.0 | 0.00 | 0.00 | 0.00 | 37 | 1010.0 |
| 20260906033604 | 79 | 0 | 0.0 | 0.0 | 0.00 | 0.00 | 0.00 | 39 | 1010.0 |
| 20260906032704 | 79 | 0 | 0.0 | 0.0 | 0.00 | 0.00 | 0.00 | 39 | 1010.0 |
| 20260906031803 | 80 | 350 | 0.0 | 2.0 | 0.00 | 0.00 | 0.00 | 39 | 1009.8 |
| 20260906030904 | 80 | 337 | 0.0 | 2.0 | 0.00 | 0.00 | 0.00 | 40 | 1009.7 |
| 20260906030004 | 80 | 233 | 1.0 | 4.0 | 0.00 | 0.00 | 0.00 | 40 | 1009.7 |
| 20260906025403 | 80 | 221 | 0.0 | 4.0 | 0.00 | 0.00 | 0.00 | 41 | 1009.6 |
| 20260906024503 | 81 | 0 | 0.0 | 0.0 | 0.00 | 0.00 | 0.00 | 41 | 1009.5 |
| 20260906023603 | 81 | 228 | 1.0 | 3.0 | 0.00 | 0.00 | 0.00 | 41 | 1009.3 |
| 20260906022703 | 82 | 240 | 1.0 | 4.0 | 0.00 | 0.00 | 0.00 | 41 | 1009.3 |
| 20260906021803 | 82 | 239 | 2.0 | 5.0 | 0.00 | 0.00 | 0.00 | 40 | 1009.2 |
| 20260906020903 | 83 | 239 | 2.0 | 4.0 | 0.00 | 0.00 | 0.00 | 40 | 1009.3 |
| 20260906020004 | 84 | 254 | 1.0 | 5.0 | 0.00 | 0.00 | 0.00 | 39 | 1009.3 |
| 20260906015404 | 84 | 244 | 2.0 | 7.0 | 0.00 | 0.00 | 0.00 | 39 | 1009.3 |
| 20260906014524 | 85 | 234 | 4.0 | 7.0 | 0.00 | 0.00 | 0.00 | 38 | 1009.3 |
| 20260906013603 | 85 | 239 | 4.0 | 10.0 | 0.00 | 0.00 | 0.00 | 37 | 1009.3 |
| 20260906012703 | 86 | 242 | 4.0 | 10.0 | 0.00 | 0.00 | 0.00 | 37 | 1009.3 |
| 20260906011803 | 87 | 249 | 3.0 | 9.0 | 0.00 | 0.00 | 0.00 | 37 | 1009.3 |
| 20260906010903 | 88 | 249 | 3.0 | 8.0 | 0.00 | 0.00 | 0.00 | 36 | 1009.3 |
| 20260906010004 | 89 | 242 | 5.0 | 9.0 | 0.00 | 0.00 | 0.00 | 35 | 1009.2 |
| 20260906005404 | 89 | 249 | 4.0 | 8.0 | 0.00 | 0.00 | 0.00 | 35 | 1009.2 |
| 20260906004504 | 89 | 252 | 4.0 | 8.0 | 0.00 | 0.00 | 0.00 | 35 | 1009.1 |
| 20260906003603 | 89 | 247 | 3.0 | 7.0 | 0.00 | 0.00 | 0.00 | 35 | 1009.1 |
| 20260906002703 | 89 | 241 | 4.0 | 7.0 | 0.00 | 0.00 | 0.00 | 35 | 1009.0 |
| 20260906001804 | 89 | 231 | 3.0 | 6.0 | 0.00 | 0.00 | 0.00 | 35 | 1009.1 |
| 20260906000925 | 89 | 237 | 4.0 | 8.0 | 0.00 | 0.00 | 0.00 | 34 | 1009.1 |
| 20260906000003 | 89 | 237 | 5.0 | 9.0 | 0.00 | 0.00 | 0.00 | 34 | 1009.1 |
| 20260905235425 | 90 | 246 | 4.0 | 11.0 | 0.00 | 0.00 | 0.00 | 34 | 1009.1 |
| 20260905234503 | 90 | 248 | 4.0 | 11.0 | 0.00 | 0.00 | 0.00 | 34 | 1009.2 |
| 20260905233603 | 90 | 240 | 4.0 | 8.0 | 0.00 | 0.00 | 0.00 | 33 | 1009.2 |
| 20260905232703 | 91 | 256 | 4.0 | 9.0 | 0.00 | 0.00 | 0.00 | 32 | 1009.2 |
| 20260905231824 | 91 | 247 | 5.0 | 10.0 | 0.00 | 0.00 | 0.00 | 32 | 1009.2 |
| 20260905230903 | 91 | 250 | 4.0 | 8.0 | 0.00 | 0.00 | 0.00 | 33 | 1009.2 |
| 20260905230004 | 91 | 233 | 5.0 | 10.0 | 0.00 | 0.00 | 0.00 | 32 | 1009.2 |
| 20260905225403 | 92 | 238 | 5.0 | 10.0 | 0.00 | 0.00 | 0.00 | 31 | 1009.3 |
| 20260905224504 | 92 | 233 | 5.0 | 9.0 | 0.00 | 0.00 | 0.00 | 31 | 1009.3 |
| 20260905223603 | 91 | 234 | 4.0 | 9.0 | 0.00 | 0.00 | 0.00 | 30 | 1009.4 |
| 20260905222703 | 92 | 231 | 5.0 | 10.0 | 0.00 | 0.00 | 0.00 | 30 | 1009.6 |
| 20260905221803 | 92 | 251 | 3.0 | 8.0 | 0.00 | 0.00 | 0.00 | 30 | 1009.6 |
| 20260905220903 | 91 | 245 | 4.0 | 9.0 | 0.00 | 0.00 | 0.00 | 29 | 1009.6 |
| 20260905220003 | 92 | 240 | 4.0 | 10.0 | 0.00 | 0.00 | 0.00 | 28 | 1009.6 |
| 20260905215403 | 92 | 245 | 4.0 | 10.0 | 0.00 | 0.00 | 0.00 | 27 | 1009.7 |
| 20260905214503 | 93 | 241 | 3.0 | 8.0 | 0.00 | 0.00 | 0.00 | 26 | 1009.7 |
| 20260905213604 | 93 | 277 | 2.0 | 6.0 | 0.00 | 0.00 | 0.00 | 25 | 1009.8 |
| 20260905212704 | 93 | 246 | 3.0 | 7.0 | 0.00 | 0.00 | 0.00 | 25 | 1010.0 |
| 20260905211803 | 93 | 250 | 3.0 | 7.0 | 0.00 | 0.00 | 0.00 | 24 | 1010.1 |
| 20260905210903 | 93 | 270 | 3.0 | 7.0 | 0.00 | 0.00 | 0.00 | 24 | 1010.1 |
| 20260905210004 | 94 | 233 | 5.0 | 12.0 | 0.00 | 0.00 | 0.00 | 23 | 1010.2 |